FW8685 Weather Reports


time (UTC)temp
F
wind
direction
speed
knots
gust
knots
rain 1hr
in
rain 24hr
in
rain mn
in
humidity
%
barometer
mb
20260502164022 62 9 7.0 13.0 0.00 0.04 0.02 40 1019.8
20260502163522 62 57 5.2 10.4 0.00 0.04 0.02 46 1020.0
20260502163044 61 29 4.3 10.4 0.00 0.04 0.02 40 1019.9
20260502162525 61 48 6.1 11.3 0.00 0.04 0.02 44 1019.8
20260502162029 61 34 6.1 12.2 0.00 0.04 0.02 41 1019.9
20260502161541 61 26 7.8 12.2 0.00 0.04 0.02 41 1020.0
20260502161024 60 348 5.2 10.4 0.00 0.04 0.02 41 1019.9
20260502160525 60 51 6.1 10.4 0.00 0.04 0.02 41 1020.1
20260502152024 58 62 4.3 9.6 0.00 0.04 0.02 50 1020.2
20260502151543 58 41 4.3 9.6 0.00 0.04 0.02 48 1020.2
20260502151024 57 70 5.2 12.2 0.00 0.04 0.02 48 1020.3
20260502150524 56 79 7.0 13.0 0.00 0.04 0.02 49 1020.2
20260502130524 46 42 4.3 8.7 0.00 0.04 0.02 78 1019.4
20260502123522 43 53 3.5 7.0 0.00 0.04 0.02 86 1019.1
20260502123041 42 49 3.5 7.0 0.00 0.04 0.02 86 1019.1
20260502122523 42 45 2.6 4.3 0.00 0.04 0.02 86 1019.0
20260502122023 42 42 2.6 4.3 0.00 0.04 0.02 86 1018.9
20260502121538 42 57 2.6 5.2 0.00 0.04 0.02 86 1018.8
20260502121023 41 42 2.6 7.0 0.00 0.04 0.02 85 1018.7
20260502120523 41 42 4.3 7.0 0.00 0.04 0.02 85 1018.7
20260502115522 41 36 3.5 5.2 0.00 0.04 0.02 83 1018.5
20260502115024 41 32 2.6 3.5 0.00 0.04 0.02 83 1018.6
20260502114544 42 39 1.7 4.3 0.00 0.04 0.02 83 1018.5
20260502114022 42 30 1.7 5.2 0.00 0.04 0.02 83 1018.5
20260502113524 42 40 2.6 5.2 0.00 0.04 0.02 83 1018.4
20260502113040 42 51 2.6 5.2 0.00 0.04 0.02 84 1018.2
20260502112521 42 37 2.6 6.1 0.00 0.04 0.02 84 1018.2
20260502112027 42 42 3.5 6.1 0.00 0.04 0.02 84 1018.1
20260502111536 42 52 3.5 8.7 0.00 0.04 0.02 85 1018.1
20260502111023 42 35 4.3 8.7 0.00 0.04 0.02 85 1018.0
20260502110521 42 39 4.3 7.8 0.00 0.04 0.02 86 1018.1
20260502110039 43 41 3.5 6.1 0.00 0.04 0.02 87 1018.1
20260502105525 43 53 3.5 5.2 0.00 0.04 0.02 87 1018.0
20260502105024 43 41 3.5 6.1 0.00 0.04 0.02 87 1017.9
20260502104547 43 49 3.5 7.0 0.00 0.04 0.02 88 1018.0
20260502104025 43 43 4.3 7.0 0.00 0.04 0.02 88 1017.9
20260502103524 43 38 4.3 6.1 0.00 0.04 0.02 88 1017.9
20260502103039 43 40 4.3 5.2 0.00 0.04 0.02 89 1017.8
20260502102525 43 40 3.5 6.1 0.00 0.04 0.02 89 1017.9
20260502102024 43 46 3.5 6.1 0.00 0.04 0.02 89 1017.8
20260502101604 43 51 2.6 5.2 0.00 0.04 0.02 90 1017.9
20260502101025 43 52 2.6 5.2 0.00 0.04 0.02 90 1017.9
20260502100525 43 57 2.6 6.1 0.00 0.04 0.02 90 1017.8
20260502091024 46 52 2.6 7.8 0.00 0.04 0.02 90 1017.5
20260502090521 46 53 3.5 7.8 0.00 0.04 0.02 90 1017.5
20260502071536 50 315 1.7 3.5 0.00 0.04 0.02 87 1017.9
20260502071024 50 217 0.9 2.6 0.00 0.04 0.02 87 1017.8
20260502070523 50 216 0.0 3.5 0.00 0.04 0.02 87 1017.7
20260502070052 50 0 0.0 3.5 0.00 0.04 0.02 87 1017.4
20260502065521 50 220 1.7 3.5 0.00 0.04 0.02 86 1017.4
20260502065022 50 204 1.7 5.2 0.00 0.04 0.02 86 1017.5
20260502064538 50 284 1.7 5.2 0.00 0.04 0.02 86 1017.6
20260502064022 50 287 0.0 3.5 0.01 0.04 0.02 85 1017.3
20260502063523 51 56 0.9 3.5 0.01 0.04 0.02 84 1017.3
20260502063039 51 82 1.7 2.6 0.01 0.04 0.02 84 1017.3
20260502062523 51 0 0.9 5.2 0.01 0.04 0.02 83 1017.3
20260502062023 51 36 1.7 5.2 0.02 0.04 0.02 83 1017.3
20260502061538 51 34 2.6 7.0 0.02 0.04 0.02 83 1017.2
20260502061021 51 32 3.5 9.6 0.02 0.04 0.02 83 1017.0
20260502060525 52 0 0.9 9.6 0.02 0.04 0.02 84 1017.2
20260502060038 52 11 5.2 8.7 0.02 0.04 0.02 85 1017.4
20260502055522 52 284 4.3 9.6 0.02 0.04 0.02 84 1017.2
20260502055023 52 177 4.3 9.6 0.03 0.04 0.02 83 1017.2
20260502054540 52 44 2.6 4.3 0.03 0.04 0.02 85 1017.7
20260502054023 52 317 2.6 5.2 0.02 0.03 0.01 84 1017.7
20260502053523 52 327 2.6 5.2 0.02 0.03 0.01 83 1017.4
20260502053036 52 355 1.7 5.2 0.02 0.03 0.01 83 1017.3
20260502052521 52 322 3.5 5.2 0.03 0.03 0.01 83 1017.0
20260502052025 52 313 0.0 6.1 0.02 0.02 0.00 82 1016.6
20260502051555 52 155 1.7 7.8 0.02 0.02 0.00 82 1016.4
20260502051022 52 169 4.3 7.8 0.02 0.02 0.00 82 1016.2
20260502050520 52 154 5.2 8.7 0.02 0.02 0.00 82 1016.3
20260502050039 52 198 4.3 10.4 0.02 0.02 0.00 82 1016.4
20260502045523 52 182 5.2 10.4 0.02 0.02 0.02 82 1016.5
20260502045023 52 236 4.3 9.6 0.01 0.01 0.01 82 1016.5
20260502044554 52 173 5.2 8.7 0.01 0.01 0.01 82 1016.3
20260502044022 52 165 4.3 7.0 0.01 0.01 0.01 82 1016.6
20260502043522 52 150 2.6 5.2 0.01 0.01 0.01 81 1016.7
20260502043038 52 112 0.9 3.5 0.01 0.01 0.01 81 1016.8
20260502042522 52 112 1.7 3.5 0.00 0.00 0.00 80 1016.7
20260502042022 52 90 0.9 4.3 0.00 0.00 0.00 80 1016.8
20260502041537 52 84 2.6 6.1 0.00 0.00 0.00 80 1016.7
20260502041023 52 138 3.5 6.1 0.00 0.00 0.00 80 1016.5
20260502040527 53 144 3.5 6.1 0.00 0.00 0.00 80 1016.5
20260502040045 53 133 2.6 7.0 0.00 0.00 0.00 79 1016.5
20260502035523 53 151 3.5 7.0 0.00 0.00 0.00 79 1016.6
20260502035024 54 159 4.3 6.1 0.00 0.00 0.00 78 1016.6
20260502034538 54 184 2.6 3.5 0.00 0.00 0.00 78 1016.8
20260502034023 54 144 0.9 3.5 0.00 0.00 0.00 77 1016.8
20260502033522 54 111 0.9 2.6 0.00 0.00 0.00 76 1017.2
20260502033041 54 340 0.0 2.6 0.00 0.00 0.00 76 1017.6
20260502032522 54 321 0.0 2.6 0.00 0.00 0.00 76 1017.6
20260502032022 54 0 0.0 1.7 0.00 0.00 0.00 74 1017.3
20260502031540 54 0 0.0 2.6 0.00 0.00 0.00 72 1017.2
20260502031022 54 131 0.9 3.5 0.00 0.00 0.00 71 1016.8
20260502030523 54 131 1.7 3.5 0.00 0.00 0.00 72 1016.7
20260502030039 54 131 1.7 3.5 0.00 0.00 0.00 73 1016.5
20260502025522 54 129 1.7 4.3 0.00 0.00 0.00 73 1016.4
20260502025022 55 123 1.7 4.3 0.00 0.00 0.00 72 1016.4
20260502024541 55 161 1.7 5.2 0.00 0.00 0.00 69 1016.4
20260502024022 55 162 1.7 6.1 0.00 0.00 0.00 69 1016.4
20260502023522 55 155 3.5 6.1 0.00 0.00 0.00 69 1016.4
20260502023044 56 149 4.3 6.1 0.00 0.00 0.00 69 1016.3
20260502022521 56 149 4.3 6.1 0.00 0.00 0.00 68 1016.4
20260502022023 56 173 2.6 5.2 0.00 0.00 0.00 66 1016.3
20260502021538 56 190 0.9 2.6 0.00 0.00 0.00 65 1016.3
20260502021020 56 288 0.0 4.3 0.00 0.00 0.00 64 1016.3
20260502020523 56 0 0.9 9.6 0.00 0.00 0.00 65 1016.1
20260502020048 56 47 3.5 9.6 0.00 0.00 0.00 64 1016.0
20260502015523 56 48 5.2 8.7 0.00 0.00 0.00 63 1015.9
20260502015024 57 33 3.5 9.6 0.00 0.00 0.00 62 1015.9
20260502014538 57 28 6.1 10.4 0.00 0.00 0.00 60 1015.8
20260502014049 57 51 6.1 10.4 0.00 0.00 0.00 59 1015.6
20260502013522 57 59 7.0 10.4 0.00 0.00 0.00 59 1015.5
20260502013053 57 46 6.1 10.4 0.00 0.00 0.00 57 1015.5
20260502012522 57 53 3.5 9.6 0.00 0.00 0.00 57 1015.4
20260502012022 57 54 4.3 9.6 0.00 0.00 0.00 57 1015.2
20260502011543 58 60 3.5 10.4 0.00 0.00 0.00 57 1015.1
20260502011021 58 45 6.1 10.4 0.00 0.00 0.00 56 1015.0
20260502010521 58 60 7.0 11.3 0.00 0.00 0.00 56 1015.1
20260502010036 58 61 7.0 11.3 0.00 0.00 0.00 56 1015.1
20260502005521 58 41 6.1 8.7 0.00 0.00 0.00 56 1015.2
20260502005023 58 38 5.2 8.7 0.00 0.00 0.00 56 1015.3
20260502004538 58 29 5.2 8.7 0.00 0.00 0.00 55 1015.2
20260502004022 58 30 4.3 11.3 0.00 0.00 0.00 54 1015.0
20260502003522 59 41 6.1 12.2 0.00 0.00 0.00 54 1015.0
20260502003039 59 28 7.0 13.0 0.00 0.00 0.00 54 1015.0
20260502002522 59 38 7.8 13.0 0.00 0.00 0.00 53 1014.9
20260502002022 59 19 10.4 15.6 0.00 0.00 0.00 53 1014.8
20260502001556 59 28 9.6 15.6 0.00 0.00 0.00 52 1014.7
20260502001021 60 46 9.6 15.6 0.00 0.00 0.00 52 1014.7
20260502000522 60 40 9.6 15.6 0.00 0.00 0.00 51 1014.7
20260502000037 61 32 10.4 18.2 0.00 0.00 0.00 51 1014.6
20260501235522 61 348 11.3 18.2 0.00 0.00 0.00 48 1014.7
20260501235023 62 360 10.4 18.2 0.00 0.00 0.00 47 1014.6
20260501234539 62 37 7.8 14.8 0.00 0.00 0.00 46 1014.5
20260501234023 63 9 9.6 19.1 0.00 0.00 0.00 45 1014.5
20260501233522 63 34 8.7 19.1 0.00 0.00 0.00 43 1014.4
20260501233045 64 17 7.8 19.1 0.00 0.00 0.00 39 1014.3
20260501232520 64 5 6.1 11.3 0.00 0.00 0.00 38 1014.1
20260501232022 64 33 7.8 11.3 0.00 0.00 0.00 38 1014.0
20260501231539 64 32 6.1 11.3 0.00 0.00 0.00 38 1014.0
20260501231022 64 28 7.0 12.2 0.00 0.00 0.00 37 1014.1
20260501230522 65 40 7.8 12.2 0.00 0.00 0.00 36 1014.0
20260501230040 65 25 5.2 9.6 0.00 0.00 0.00 38 1013.9
20260501225524 65 47 6.1 8.7 0.00 0.00 0.00 35 1013.8
20260501225024 66 30 5.2 9.6 0.00 0.00 0.00 37 1013.8
20260501224545 66 11 4.3 10.4 0.00 0.00 0.00 34 1013.8
20260501224021 66 30 4.3 10.4 0.00 0.00 0.00 34 1013.7
20260501223524 67 26 6.1 10.4 0.00 0.00 0.00 36 1013.7
20260501223041 67 9 3.5 8.7 0.00 0.00 0.00 34 1013.7
20260501222522 68 25 3.5 8.7 0.00 0.00 0.00 32 1013.6
20260501222023 68 22 3.5 8.7 0.00 0.00 0.00 34 1013.6
20260501221539 68 40 2.6 10.4 0.00 0.00 0.00 34 1013.7
20260501221021 67 29 3.5 10.4 0.00 0.00 0.00 32 1013.7
20260501220522 67 330 3.5 10.4 0.00 0.00 0.00 34 1013.8
20260501220109 68 11 5.2 11.3 0.00 0.00 0.00 31 1013.7
20260501215521 68 37 6.1 14.8 0.00 0.00 0.00 32 1013.7
20260501215021 69 331 9.6 14.8 0.00 0.00 0.00 32 1013.6
20260501214539 69 20 7.8 14.8 0.00 0.00 0.00 32 1013.6
20260501214021 70 11 5.2 14.8 0.00 0.00 0.00 31 1013.6
20260501213521 70 31 7.0 14.8 0.00 0.00 0.00 30 1013.7
20260501213037 69 22 3.5 7.0 0.00 0.00 0.00 32 1013.8
20260501212523 68 14 2.6 7.0 0.00 0.00 0.00 30 1013.9
20260501212021 68 340 2.6 7.8 0.00 0.00 0.00 32 1013.9
20260501211535 68 114 4.3 11.3 0.00 0.00 0.00 31 1014.0
20260501211026 69 59 5.2 11.3 0.00 0.00 0.00 31 1014.0
20260501210522 69 360 0.9 7.0 0.00 0.00 0.00 32 1014.2
20260501210054 69 311 1.7 9.6 0.00 0.00 0.00 30 1014.3
20260501205522 69 284 5.2 9.6 0.00 0.00 0.00 28 1014.4
20260501205022 69 252 1.7 8.7 0.00 0.00 0.00 30 1014.4
20260501204542 69 257 4.3 8.7 0.00 0.00 0.00 34 1014.6
20260501204021 69 308 2.6 7.8 0.00 0.00 0.00 34 1014.7
20260501203521 68 105 1.7 7.8 0.00 0.00 0.00 28 1014.7
20260501203041 68 122 4.3 7.8 0.00 0.00 0.00 30 1014.9
20260501202521 68 157 2.6 8.7 0.00 0.00 0.00 34 1014.9
20260501202022 68 203 1.7 8.7 0.00 0.00 0.00 28 1015.0
20260501201541 68 142 3.5 8.7 0.00 0.00 0.00 30 1015.1
20260501201021 68 153 1.7 6.1 0.00 0.00 0.00 29 1015.3
20260501200525 67 0 0.9 5.2 0.00 0.00 0.00 34 1015.4
20260501200036 67 286 1.7 6.1 0.00 0.00 0.00 30 1015.5
20260501195521 67 339 2.6 7.0 0.00 0.00 0.00 37 1015.7
20260501195021 66 46 2.6 7.8 0.00 0.00 0.00 34 1015.7
20260501194540 66 105 3.5 13.9 0.00 0.00 0.00 31 1015.8
20260501194020 68 350 7.0 13.9 0.00 0.00 0.00 29 1016.0
20260501193521 69 360 5.2 11.3 0.00 0.00 0.00 34 1016.0
20260501193045 69 18 3.5 9.6 0.00 0.00 0.00 34 1016.0
20260501192521 68 57 3.5 9.6 0.00 0.00 0.00 37 1016.0
20260501192021 67 360 5.2 9.6 0.00 0.00 0.00 30 1016.2
20260501191537 67 12 3.5 11.3 0.00 0.00 0.00 37 1016.3
20260501191025 67 81 7.0 13.9 0.00 0.00 0.00 30 1016.1
20260501190529 67 61 7.8 13.9 0.00 0.00 0.00 32 1016.2
20260501190041 68 59 6.1 10.4 0.00 0.00 0.00 31 1016.2
20260501185524 68 352 4.3 7.8 0.00 0.00 0.00 32 1016.3
20260501185024 67 5 4.3 7.8 0.00 0.00 0.00 35 1016.3
20260501184537 67 352 2.6 5.2 0.00 0.00 0.00 30 1016.3
20260501184025 67 49 0.9 10.4 0.00 0.00 0.00 31 1016.4
20260501183522 67 69 3.5 11.3 0.00 0.00 0.00 33 1016.6
20260501183056 67 34 7.0 11.3 0.00 0.00 0.00 32 1016.7
20260501182525 67 308 3.5 9.6 0.00 0.00 0.00 35 1016.7
20260501182023 66 9 4.3 9.6 0.00 0.00 0.00 34 1016.8
20260501181556 66 18 3.5 10.4 0.00 0.00 0.00 34 1016.8
20260501181025 67 300 3.5 10.4 0.00 0.00 0.00 34 1016.8
20260501180521 66 322 4.3 13.0 0.00 0.00 0.00 32 1016.8
20260501180043 67 151 7.0 13.0 0.00 0.00 0.00 33 1016.9